Weather History for TJNR - January, 2013

Change the Weather History Date:

Saturday, January 26, 2013

  Actual Average Record
Temperature  
Mean Temperature 78 °F -  
Max Temperature 81 °F 80 °F 84 °F (1998)
Min Temperature 75 °F 69 °F 66 °F (2001)
Cooling Degree Days 13    
Growing Degree Days 28 (Base 50)    
Moisture  
Dew Point 72 °F    
Average Humidity 82    
Maximum Humidity 94    
Minimum Humidity 71    
Precipitation  
Precipitation 0.09 in - - ()
Sea Level Pressure  
Sea Level Pressure 30.07 in    
Wind  
Wind Speed 7 mph (East)    
Max Wind Speed 16 mph    
Max Gust Speed 23 mph    
Visibility 10 miles    
Events Rain    
Averages and records for this station are not official NWS values.
T = Trace of Precipitation, MM = Missing Value Source: NWS Daily Summary

Daily Weather History Graph

Daily Weather History Graph

Search for Another Location

Airport or City:

Trip Planner

Search our weather history database for the weather conditions in past years. The results will help you decide how hot, cold, wet, or windy it might be!

Date:

Astronomy

Jan. 26, 2013 Rise Set
Actual Time 6:56 AM AST 6:13 PM AST
Civil Twilight 6:33 AM AST 6:36 PM AST
Nautical Twilight 6:07 AM AST 7:02 PM AST
Astronomical Twilight 5:41 AM AST 7:29 PM AST
Moon 5:57 PM AST (1/26) 6:16 AM AST (1/26)
Length of Visible Light 12h 02m
Length of Day
11h 16m
Full, 100% of the Moon is Illuminated
Jan 26
Full
Jan 27
Full
Feb 3
Last Quarter
Feb 10
New
Feb 17
First Quarter

Hourly Weather History & Observations

Time (AST) Temp. Heat Index Dew Point Humidity Pressure Visibility Wind Dir Wind Speed Gust Speed Precip Events Conditions
12:53 AM - - - N/A% 30.08 in 10.0 mi Calm Calm - N/A   Mostly Cloudy
1:07 AM - - - N/A% 30.07 in 10.0 mi ENE 8.1 mph - N/A   Mostly Cloudy
1:53 AM - - - N/A% 30.07 in 10.0 mi ENE 11.5 mph 17.3 mph N/A   Overcast
2:02 AM 77.0 °F - 71.6 °F 83% 30.06 in 10.0 mi ENE 9.2 mph - N/A   Overcast
2:53 AM 77.0 °F - 72.0 °F 84% 30.05 in 10.0 mi East 9.2 mph - N/A   Overcast
3:05 AM 75.2 °F - 73.4 °F 94% 30.04 in 9.0 mi East 11.5 mph - N/A   Overcast
3:20 AM - - - N/A% 30.04 in 10.0 mi East 12.7 mph 17.3 mph 0.00 in   Overcast
3:45 AM - - - N/A% 30.03 in 3.0 mi ENE 4.6 mph - 0.01 in Rain Light Rain
3:53 AM - - - N/A% 30.04 in 10.0 mi East 8.1 mph - 0.01 in   Overcast
4:07 AM - - - N/A% 30.03 in 10.0 mi East 4.6 mph - N/A   Overcast
4:14 AM - - - N/A% 30.03 in 10.0 mi ENE 6.9 mph - N/A   Overcast
4:53 AM - - - N/A% 30.05 in 10.0 mi East 6.9 mph - N/A   Overcast
5:22 AM - - - N/A% 30.04 in 9.0 mi East 5.8 mph - 0.01 in Rain Light Rain
5:34 AM - - - N/A% 30.04 in 3.0 mi Calm Calm - 0.08 in Rain Light Rain
5:53 AM - - - N/A% 30.06 in 10.0 mi Variable 6.9 mph - 0.08 in   Overcast
6:53 AM 75.9 °F - 72.0 °F 87% 30.06 in 10.0 mi ESE 10.4 mph - N/A   Overcast
7:21 AM 75.2 °F - 71.6 °F 89% 30.07 in 10.0 mi East 16.1 mph 23.0 mph N/A   Mostly Cloudy
7:33 AM 75.2 °F - 73.4 °F 94% 30.07 in 10.0 mi East 10.4 mph 21.9 mph N/A   Mostly Cloudy
7:43 AM 75.2 °F - 71.6 °F 89% 30.07 in 10.0 mi ESE 11.5 mph 21.9 mph N/A   Mostly Cloudy
7:53 AM 75.0 °F - 72.0 °F 90% 30.08 in 10.0 mi ESE 9.2 mph 17.3 mph N/A   Mostly Cloudy
8:53 AM 78.1 °F - 72.0 °F 81% 30.10 in 10.0 mi SE 12.7 mph 19.6 mph N/A   Overcast
9:53 AM 79.0 °F - 70.0 °F 74% 30.12 in 10.0 mi ESE 9.2 mph - N/A   Overcast
10:53 AM 81.0 °F 85.2 °F 72.0 °F 74% 30.12 in 10.0 mi East 8.1 mph - N/A   Overcast
11:53 AM 81.0 °F 85.8 °F 73.0 °F 77% 30.11 in 10.0 mi East 11.5 mph - N/A   Overcast
12:53 PM 79.0 °F - 70.0 °F 74% 30.09 in 10.0 mi East 10.4 mph - N/A   Overcast
1:53 PM 80.1 °F 83.2 °F 70.0 °F 71% 30.07 in 10.0 mi East 9.2 mph 17.3 mph N/A   Overcast
2:53 PM 80.1 °F 83.8 °F 72.0 °F 76% 30.05 in 10.0 mi ENE 6.9 mph - N/A   Overcast
3:53 PM 80.1 °F 83.2 °F 70.0 °F 71% 30.05 in 10.0 mi East 10.4 mph - N/A   Overcast
4:53 PM 81.0 °F 85.2 °F 72.0 °F 74% 30.06 in 10.0 mi ENE 5.8 mph - N/A   Overcast
5:53 PM 79.0 °F - 72.0 °F 79% 30.07 in 10.0 mi NE 5.8 mph - N/A   Overcast
6:53 PM 78.1 °F - 72.0 °F 81% 30.07 in 10.0 mi NE 5.8 mph - N/A   Overcast
7:53 PM 77.0 °F - 73.0 °F 88% 30.08 in 10.0 mi East 3.5 mph - N/A   Overcast
8:42 PM 78.8 °F - 73.4 °F 83% 30.08 in 10.0 mi ESE 5.8 mph - N/A   Overcast
8:53 PM 77.0 °F - 72.0 °F 84% 30.09 in 10.0 mi East 3.5 mph - N/A   Mostly Cloudy
9:01 PM 77.0 °F - 71.6 °F 83% 30.09 in 10.0 mi East 5.8 mph - N/A   Scattered Clouds
9:53 PM 77.0 °F - 70.0 °F 79% 30.09 in 10.0 mi East 4.6 mph - N/A   Clear
10:53 PM 77.0 °F - 72.0 °F 84% 30.09 in 10.0 mi ENE 5.8 mph - N/A   Partly Cloudy
11:53 PM 77.0 °F - 71.1 °F 82% 30.09 in 10.0 mi East 4.6 mph - N/A   Partly Cloudy